Weather History for KIPT - September, 2014

Change the Weather History Date:

Friday, September 5, 2014

  Actual Average Record
Temperature  
Mean Temperature 78 °F 67 °F  
Max Temperature 88 °F 77 °F 95 °F (1954)
Min Temperature 68 °F 57 °F 42 °F (1946)
Degree Days  
Heating Degree Days 0 1  
Month to date heating degree days 0 5  
Since 1 July heating degree days 5 19  
Cooling Degree Days 13 4  
Month to date cooling degree days 51 20  
Year to date cooling degree days 668 654  
Growing Degree Days 28 (Base 50)    
Moisture  
Dew Point 67 °F    
Average Humidity 70    
Maximum Humidity 87    
Minimum Humidity 53    
Precipitation  
Precipitation 0.00 in 0.14 in 1.31 in (1944)
Month to date precipitation 0.05 0.67  
Year to date precipitation 28.86 27.70  
Sea Level Pressure  
Sea Level Pressure 30.09 in    
Wind  
Wind Speed 4 mph (SE)    
Max Wind Speed 15 mph    
Max Gust Speed 19 mph    
Visibility 10 miles    
Events      
T = Trace of Precipitation, MM = Missing Value Source: NWS Daily Summary

Daily Weather History Graph

Daily Weather History Graph

Search for Another Location

Airport or City:

Trip Planner

Search our weather history database for the weather conditions in past years. The results will help you decide how hot, cold, wet, or windy it might be!

Date:

Astronomy

Sep. 05, 2014 Rise Set
Actual Time 6:38 AM EDT 7:33 PM EDT
Civil Twilight 6:09 AM EDT 8:01 PM EDT
Nautical Twilight 5:36 AM EDT 8:35 PM EDT
Astronomical Twilight 5:01 AM EDT 9:09 PM EDT
Moon 5:02 PM EDT (9/5) 2:28 AM EDT (9/5)
Length of Visible Light 13h 51m
Length of Day
12h 55m
Waxing Gibbous, 83% of the Moon is Illuminated
Sep 5
Waxing Gibbous
Sep 8
Full
Sep 15
Last Quarter
Sep 24
New
Oct 1
First Quarter

Hourly Weather History & Observations

Time (EDT) Temp. Heat Index Dew Point Humidity Pressure Visibility Wind Dir Wind Speed Gust Speed Precip Events Conditions
12:54 AM 73.9 °F - 64.9 °F 73% 30.10 in 10.0 mi ENE 6.9 mph - N/A   Partly Cloudy
1:54 AM 71.1 °F - 66.0 °F 84% 30.11 in 10.0 mi Calm Calm - N/A   Partly Cloudy
2:54 AM 70.0 °F - 64.9 °F 84% 30.10 in 10.0 mi ENE 3.5 mph - N/A   Scattered Clouds
3:39 AM 70.0 °F - 64.9 °F 84% 30.11 in 10.0 mi Calm Calm - N/A   Mostly Cloudy
3:54 AM 70.0 °F - 64.9 °F 84% 30.09 in 10.0 mi Calm Calm - N/A   Mostly Cloudy
4:13 AM 69.1 °F - 64.0 °F 84% 30.10 in 10.0 mi ESE 3.5 mph - N/A   Scattered Clouds
4:54 AM 68.0 °F - 64.9 °F 90% 30.09 in 10.0 mi Calm Calm - N/A   Scattered Clouds
5:31 AM 69.1 °F - 64.9 °F 87% 30.11 in 9.0 mi Calm Calm - N/A   Mostly Cloudy
5:54 AM 69.1 °F - 64.9 °F 87% 30.10 in 10.0 mi Calm Calm - N/A   Overcast
6:12 AM 69.1 °F - 64.0 °F 84% 30.11 in 10.0 mi Calm Calm - N/A   Scattered Clouds
6:20 AM 69.1 °F - 64.9 °F 87% 30.11 in 10.0 mi Calm Calm - N/A   Mostly Cloudy
6:54 AM 69.1 °F - 64.9 °F 87% 30.11 in 9.0 mi East 4.6 mph - N/A   Mostly Cloudy
7:54 AM 72.0 °F - 66.0 °F 81% 30.13 in 10.0 mi Calm Calm - N/A   Mostly Cloudy
8:06 AM 72.0 °F - 66.0 °F 81% 30.14 in 10.0 mi Calm Calm - N/A   Scattered Clouds
8:50 AM 71.6 °F - 66.2 °F 83% 30.15 in 10.0 mi SSW 4.6 mph - N/A   Mostly Cloudy
8:54 AM 71.1 °F - 66.0 °F 84% 30.14 in 10.0 mi South 3.5 mph - N/A   Mostly Cloudy
9:03 AM 72.0 °F - 66.0 °F 81% 30.15 in 10.0 mi Calm Calm - N/A   Scattered Clouds
9:54 AM 78.8 °F - 68.0 °F 69% 30.15 in 10.0 mi NNW 3.5 mph - N/A   Partly Cloudy
10:13 AM 77.0 °F - 68.0 °F 74% 30.16 in 10.0 mi South 4.6 mph - N/A   Mostly Cloudy
10:43 AM 79.0 °F - 68.0 °F 69% 30.15 in 10.0 mi Calm Calm - N/A   Scattered Clouds
10:54 AM 80.1 °F 82.9 °F 69.1 °F 69% 30.14 in 10.0 mi East 3.5 mph - N/A   Scattered Clouds
11:54 AM 82.0 °F 85.5 °F 69.1 °F 65% 30.10 in 10.0 mi ESE 5.8 mph - N/A   Scattered Clouds
12:54 PM 84.9 °F 88.8 °F 69.1 °F 59% 30.08 in 10.0 mi SSE 10.4 mph - N/A   Scattered Clouds
1:54 PM 86.0 °F 90.1 °F 69.1 °F 57% 30.09 in 10.0 mi South 9.2 mph - N/A   Scattered Clouds
2:54 PM 87.1 °F 90.6 °F 68.0 °F 53% 30.06 in 10.0 mi SSW 5.8 mph - N/A   Scattered Clouds
3:54 PM 88.0 °F 91.4 °F 68.0 °F 51% 30.04 in 10.0 mi SSE 10.4 mph - N/A   Clear
4:54 PM 86.0 °F 90.1 °F 69.1 °F 57% 30.03 in 10.0 mi South 9.2 mph - N/A   Clear
5:54 PM 84.2 °F 87.3 °F 68.0 °F 58% 30.03 in 10.0 mi SSW 4.6 mph - N/A   Clear
6:54 PM 82.9 °F 85.0 °F 66.0 °F 56% 29.99 in 10.0 mi SSE 10.4 mph - N/A   Clear
7:54 PM 81.0 °F 83.8 °F 68.0 °F 65% 29.98 in 10.0 mi South 9.2 mph - N/A   Clear
8:54 PM 78.1 °F - 68.0 °F 71% 30.00 in 10.0 mi East 5.8 mph - N/A   Clear
9:54 PM 75.0 °F - 68.0 °F 79% 30.00 in 9.0 mi NNE 3.5 mph - N/A   Clear
10:54 PM 73.0 °F - 68.0 °F 84% 30.01 in 7.0 mi Calm Calm - N/A   Clear
11:54 PM 71.1 °F - 66.9 °F 87% 29.99 in 6.0 mi SE 3.5 mph - N/A   Clear